contact:dominique.lefevre@mio.osupytheas.fr, maurice.libes@osupytheas.fr, didier.mallarino@osupytheas.fr
Project:EMSO http://www.emso-fr.org/EMSO-France
Depth: 2436.0 m
Title:EMSO Ligure Ouest : Data MII capteur MICROCAT
DateTime_Computer,Latitude,Longitude,Temperature,Conductivity,Pressure,DateTime_Instrument
DateTime_Computer,Latitude,Longitude,degC,S m-1,dbar,DateTime_Instrument
2021-08-13T00:01:08Z,42.805,6.029,13.3036,4.60041,2470.46,2021-8-13T02:02:26Z
2021-08-13T00:04:11Z,42.805,6.029,13.3034,4.60059,2470.437,2021-8-13T02:05:29Z
2021-08-13T00:07:14Z,42.805,6.029,13.3056,4.60044,2470.483,2021-8-13T02:08:32Z
2021-08-13T00:10:17Z,42.805,6.029,13.3053,4.60049,2470.437,2021-8-13T02:11:35Z
2021-08-13T00:13:20Z,42.805,6.029,13.3041,4.60045,2470.45,2021-8-13T02:14:38Z
2021-08-13T00:16:23Z,42.805,6.029,13.3010,4.60065,2470.413,2021-8-13T02:17:41Z
2021-08-13T00:19:26Z,42.805,6.029,13.3034,4.60053,2470.437,2021-8-13T02:20:45Z
2021-08-13T00:22:29Z,42.805,6.029,13.3101,4.60057,2470.474,2021-8-13T02:23:48Z
2021-08-13T00:25:33Z,42.805,6.029,13.3052,4.60066,2470.45,2021-8-13T02:26:51Z
2021-08-13T00:28:36Z,42.805,6.029,13.3054,4.60049,2470.483,2021-8-13T02:29:54Z
2021-08-13T00:31:39Z,42.805,6.029,13.3036,4.60046,2470.46,2021-8-13T02:32:57Z
2021-08-13T00:34:42Z,42.805,6.029,13.3025,4.60033,2470.437,2021-8-13T02:36:00Z
2021-08-13T00:37:45Z,42.805,6.029,13.3037,4.60068,2470.474,2021-8-13T02:39:03Z
2021-08-13T00:40:48Z,42.805,6.029,13.3041,4.60037,2470.45,2021-8-13T02:42:06Z
2021-08-13T00:43:51Z,42.805,6.029,13.3007,4.60046,2470.413,2021-8-13T02:45:10Z
2021-08-13T00:46:54Z,42.805,6.029,13.3004,4.60041,2470.427,2021-8-13T02:48:13Z
2021-08-13T00:49:58Z,42.805,6.029,13.3107,4.60048,2470.474,2021-8-13T02:51:16Z
2021-08-13T00:53:01Z,42.805,6.029,13.3040,4.60049,2470.427,2021-8-13T02:54:19Z
2021-08-13T00:56:04Z,42.805,6.029,13.3067,4.60054,2470.427,2021-8-13T02:57:22Z
2021-08-13T00:59:07Z,42.805,6.029,13.3046,4.60055,2470.427,2021-8-13T03:00:25Z
2021-08-13T01:02:10Z,42.805,6.029,13.3058,4.60059,2470.413,2021-8-13T03:03:28Z
2021-08-13T01:05:13Z,42.805,6.029,13.3046,4.60043,2470.45,2021-8-13T03:06:31Z
2021-08-13T01:08:16Z,42.805,6.029,13.3039,4.60058,2470.413,2021-8-13T03:09:35Z
2021-08-13T01:11:19Z,42.805,6.029,13.2999,4.60055,2470.427,2021-8-13T03:12:38Z
2021-08-13T01:14:23Z,42.805,6.029,13.2991,4.60075,2470.427,2021-8-13T03:15:41Z
2021-08-13T01:17:26Z,42.805,6.029,13.2998,4.60098,2470.404,2021-8-13T03:18:44Z
2021-08-13T01:20:29Z,42.805,6.029,13.2995,4.60032,2470.39,2021-8-13T03:21:47Z
2021-08-13T01:23:32Z,42.805,6.029,13.2990,4.60021,2470.437,2021-8-13T03:24:50Z
2021-08-13T01:26:35Z,42.805,6.029,13.2987,4.60029,2470.413,2021-8-13T03:27:53Z
2021-08-13T01:29:38Z,42.805,6.029,13.2991,4.60017,2470.38,2021-8-13T03:30:56Z
2021-08-13T01:32:41Z,42.805,6.029,13.2991,4.60026,2470.39,2021-8-13T03:34:00Z
2021-08-13T01:35:44Z,42.805,6.029,13.2989,4.60024,2470.39,2021-8-13T03:37:03Z
2021-08-13T01:38:47Z,42.805,6.029,13.2991,4.60023,2470.39,2021-8-13T03:40:06Z
2021-08-13T01:41:51Z,42.805,6.029,13.2991,4.60027,2470.404,2021-8-13T03:43:09Z
2021-08-13T01:44:54Z,42.805,6.029,13.2991,4.60015,2470.39,2021-8-13T03:46:12Z
2021-08-13T01:47:57Z,42.805,6.029,13.2989,4.60028,2470.404,2021-8-13T03:49:15Z
2021-08-13T01:51:00Z,42.805,6.029,13.2990,4.60022,2470.366,2021-8-13T03:52:18Z
2021-08-13T01:54:03Z,42.805,6.029,13.2990,4.60022,2470.366,2021-8-13T03:55:21Z
2021-08-13T01:57:06Z,42.805,6.029,13.2990,4.60027,2470.38,2021-8-13T03:58:25Z
2021-08-13T02:00:09Z,42.805,6.029,13.2992,4.60027,2470.343,2021-8-13T04:01:28Z
2021-08-13T02:03:12Z,42.805,6.029,13.2994,4.60017,2470.366,2021-8-13T04:04:31Z
2021-08-13T02:06:16Z,42.805,6.029,13.2992,4.60031,2470.39,2021-8-13T04:07:34Z
2021-08-13T02:09:19Z,42.805,6.029,13.2991,4.60019,2470.39,2021-8-13T04:10:37Z
2021-08-13T02:12:22Z,42.805,6.029,13.2990,4.60020,2470.343,2021-8-13T04:13:40Z
2021-08-13T02:15:25Z,42.805,6.029,13.2989,4.60014,2470.38,2021-8-13T04:16:43Z
2021-08-13T02:18:28Z,42.805,6.029,13.2990,4.60011,2470.39,2021-8-13T04:19:46Z
2021-08-13T02:21:31Z,42.805,6.029,13.2988,4.60011,2470.404,2021-8-13T04:22:49Z
2021-08-13T02:24:34Z,42.805,6.029,13.2989,4.60014,2470.343,2021-8-13T04:25:53Z
2021-08-13T02:27:37Z,42.805,6.029,13.2990,4.60011,2470.366,2021-8-13T04:28:56Z
2021-08-13T02:30:41Z,42.805,6.029,13.2990,4.60009,2470.38,2021-8-13T04:31:59Z
2021-08-13T02:33:44Z,42.805,6.029,13.2991,4.60008,2470.32,2021-8-13T04:35:02Z
2021-08-13T02:36:47Z,42.805,6.029,13.2990,4.60009,2470.334,2021-8-13T04:38:05Z
2021-08-13T02:39:50Z,42.805,6.029,13.2989,4.60010,2470.38,2021-8-13T04:41:08Z
2021-08-13T02:42:53Z,42.805,6.029,13.2986,4.60009,2470.357,2021-8-13T04:44:11Z
2021-08-13T02:45:56Z,42.805,6.029,13.2990,4.60008,2470.32,2021-8-13T04:47:14Z
2021-08-13T02:48:59Z,42.805,6.029,13.2991,4.60007,2470.366,2021-8-13T04:50:18Z
2021-08-13T02:52:02Z,42.805,6.029,13.2995,4.60008,2470.343,2021-8-13T04:53:21Z
2021-08-13T02:55:06Z,42.805,6.029,13.2990,4.60011,2470.38,2021-8-13T04:56:24Z
2021-08-13T02:58:09Z,42.805,6.029,13.2992,4.60010,2470.357,2021-8-13T04:59:27Z
2021-08-13T03:01:12Z,42.805,6.029,13.2991,4.60010,2470.32,2021-8-13T05:02:30Z
2021-08-13T03:04:15Z,42.805,6.029,13.2991,4.60011,2470.297,2021-8-13T05:05:33Z
2021-08-13T03:07:18Z,42.805,6.029,13.2992,4.60008,2470.297,2021-8-13T05:08:36Z
2021-08-13T03:10:21Z,42.805,6.029,13.2991,4.60009,2470.334,2021-8-13T05:11:39Z
2021-08-13T03:13:24Z,42.805,6.029,13.2993,4.60011,2470.32,2021-8-13T05:14:43Z
2021-08-13T03:16:27Z,42.805,6.029,13.2991,4.60009,2470.343,2021-8-13T05:17:46Z
2021-08-13T03:19:31Z,42.805,6.029,13.2991,4.60008,2470.366,2021-8-13T05:20:49Z
2021-08-13T03:22:34Z,42.805,6.029,13.2993,4.60010,2470.343,2021-8-13T05:23:52Z
2021-08-13T03:25:37Z,42.805,6.029,13.2991,4.60014,2470.357,2021-8-13T05:26:55Z
2021-08-13T03:28:40Z,42.805,6.029,13.2991,4.60010,2470.32,2021-8-13T05:29:58Z
2021-08-13T03:31:43Z,42.805,6.029,13.2990,4.60009,2470.31,2021-8-13T05:33:01Z
2021-08-13T03:34:46Z,42.805,6.029,13.2991,4.60008,2470.297,2021-8-13T05:36:04Z
2021-08-13T03:37:49Z,42.805,6.029,13.2990,4.60006,2470.32,2021-8-13T05:39:08Z
2021-08-13T03:40:52Z,42.805,6.029,13.2992,4.60011,2470.32,2021-8-13T05:42:11Z
2021-08-13T03:43:56Z,42.805,6.029,13.2991,4.60006,2470.297,2021-8-13T05:45:14Z
2021-08-13T03:46:59Z,42.805,6.029,13.2991,4.60006,2470.287,2021-8-13T05:48:17Z
2021-08-13T03:50:02Z,42.805,6.029,13.2989,4.60008,2470.334,2021-8-13T05:51:20Z
2021-08-13T03:53:05Z,42.805,6.029,13.2989,4.60007,2470.32,2021-8-13T05:54:23Z
2021-08-13T03:56:08Z,42.805,6.029,13.2990,4.60011,2470.31,2021-8-13T05:57:26Z
2021-08-13T03:59:11Z,42.805,6.029,13.2995,4.60005,2470.32,2021-8-13T06:00:29Z
2021-08-13T04:02:14Z,42.805,6.029,13.2991,4.60006,2470.31,2021-8-13T06:03:33Z
2021-08-13T04:05:17Z,42.805,6.029,13.2992,4.60006,2470.297,2021-8-13T06:06:36Z
2021-08-13T04:08:20Z,42.805,6.029,13.2991,4.60005,2470.32,2021-8-13T06:09:39Z
2021-08-13T04:11:24Z,42.805,6.029,13.2987,4.60003,2470.297,2021-8-13T06:12:42Z
2021-08-13T04:14:27Z,42.805,6.029,13.2992,4.60005,2470.31,2021-8-13T06:15:45Z
2021-08-13T04:17:30Z,42.805,6.029,13.2990,4.60005,2470.297,2021-8-13T06:18:48Z
2021-08-13T04:20:33Z,42.805,6.029,13.2994,4.60007,2470.273,2021-8-13T06:21:51Z
2021-08-13T04:23:36Z,42.805,6.029,13.2993,4.60006,2470.297,2021-8-13T06:24:54Z
2021-08-13T04:26:39Z,42.805,6.029,13.2993,4.60008,2470.31,2021-8-13T06:27:58Z
2021-08-13T04:29:42Z,42.805,6.029,13.2986,4.60008,2470.32,2021-8-13T06:31:01Z
2021-08-13T04:32:45Z,42.805,6.029,13.2992,4.60006,2470.334,2021-8-13T06:34:04Z
2021-08-13T04:35:49Z,42.805,6.029,13.2991,4.60007,2470.297,2021-8-13T06:37:07Z
2021-08-13T04:38:52Z,42.805,6.029,13.2991,4.60009,2470.31,2021-8-13T06:40:10Z
2021-08-13T04:41:55Z,42.805,6.029,13.2991,4.60006,2470.297,2021-8-13T06:43:13Z
2021-08-13T04:44:58Z,42.805,6.029,13.2989,4.60008,2470.283,2021-8-13T06:46:16Z
2021-08-13T04:48:01Z,42.805,6.029,13.2991,4.60007,2470.334,2021-8-13T06:49:19Z
2021-08-13T04:51:04Z,42.805,6.029,13.2991,4.60008,2470.32,2021-8-13T06:52:23Z
2021-08-13T04:54:07Z,42.805,6.029,13.2990,4.60009,2470.273,2021-8-13T06:55:26Z
2021-08-13T04:57:10Z,42.805,6.029,13.2992,4.60006,2470.297,2021-8-13T06:58:29Z
2021-08-13T05:00:14Z,42.805,6.029,13.2989,4.60007,2470.297,2021-8-13T07:01:32Z
2021-08-13T05:03:17Z,42.805,6.029,13.2990,4.60009,2470.297,2021-8-13T07:04:35Z
2021-08-13T05:06:20Z,42.805,6.029,13.2987,4.60006,2470.297,2021-8-13T07:07:38Z
2021-08-13T05:09:23Z,42.805,6.029,13.2988,4.60007,2470.273,2021-8-13T07:10:41Z
2021-08-13T05:12:26Z,42.805,6.029,13.2994,4.60002,2470.273,2021-8-13T07:13:44Z
2021-08-13T05:15:29Z,42.805,6.029,13.2989,4.60005,2470.31,2021-8-13T07:16:47Z
2021-08-13T05:18:32Z,42.805,6.029,13.2990,4.60006,2470.287,2021-8-13T07:19:51Z
2021-08-13T05:21:35Z,42.805,6.029,13.2991,4.60006,2470.31,2021-8-13T07:22:54Z
2021-08-13T05:24:39Z,42.805,6.029,13.2994,4.60007,2470.297,2021-8-13T07:25:57Z
2021-08-13T05:27:42Z,42.805,6.029,13.2991,4.60008,2470.297,2021-8-13T07:29:00Z
2021-08-13T05:30:45Z,42.805,6.029,13.2991,4.60009,2470.264,2021-8-13T07:32:03Z
2021-08-13T05:33:48Z,42.805,6.029,13.2990,4.60006,2470.31,2021-8-13T07:35:06Z
2021-08-13T05:36:51Z,42.805,6.029,13.2991,4.60006,2470.31,2021-8-13T07:38:09Z
2021-08-13T05:39:54Z,42.805,6.029,13.2993,4.60006,2470.32,2021-8-13T07:41:12Z
2021-08-13T05:42:57Z,42.805,6.029,13.2990,4.60003,2470.273,2021-8-13T07:44:16Z
2021-08-13T05:46:00Z,42.805,6.029,13.2992,4.60011,2470.273,2021-8-13T07:47:19Z
2021-08-13T05:49:04Z,42.805,6.029,13.2990,4.60008,2470.287,2021-8-13T07:50:22Z
2021-08-13T05:52:07Z,42.805,6.029,13.2991,4.60006,2470.273,2021-8-13T07:53:25Z
2021-08-13T05:55:10Z,42.805,6.029,13.2994,4.60008,2470.31,2021-8-13T07:56:28Z
2021-08-13T05:58:13Z,42.805,6.029,13.2993,4.60003,2470.31,2021-8-13T07:59:31Z
2021-08-13T06:01:16Z,42.805,6.029,13.2991,4.60011,2470.297,2021-8-13T08:02:34Z
2021-08-13T06:04:19Z,42.805,6.029,13.2987,4.60003,2470.32,2021-8-13T08:05:38Z
2021-08-13T06:07:22Z,42.805,6.029,13.2991,4.60005,2470.297,2021-8-13T08:08:41Z
2021-08-13T06:10:25Z,42.805,6.029,13.2988,4.60001,2470.32,2021-8-13T08:11:44Z
2021-08-13T06:13:29Z,42.805,6.029,13.2994,4.60002,2470.32,2021-8-13T08:14:47Z
2021-08-13T06:16:32Z,42.805,6.029,13.2992,4.60005,2470.31,2021-8-13T08:17:50Z
2021-08-13T06:19:35Z,42.805,6.029,13.2992,4.60005,2470.297,2021-8-13T08:20:53Z
2021-08-13T06:22:38Z,42.805,6.029,13.2994,4.60010,2470.297,2021-8-13T08:23:56Z
2021-08-13T06:25:41Z,42.805,6.029,13.2993,4.60008,2470.31,2021-8-13T08:26:59Z
2021-08-13T06:28:44Z,42.805,6.029,13.2991,4.60005,2470.297,2021-8-13T08:30:02Z
2021-08-13T06:31:47Z,42.805,6.029,13.2994,4.60003,2470.334,2021-8-13T08:33:06Z
2021-08-13T06:34:50Z,42.805,6.029,13.2993,4.60009,2470.31,2021-8-13T08:36:09Z
2021-08-13T06:37:54Z,42.805,6.029,13.2992,4.60006,2470.334,2021-8-13T08:39:12Z
2021-08-13T06:40:57Z,42.805,6.029,13.2989,4.60005,2470.32,2021-8-13T08:42:15Z
2021-08-13T06:44:00Z,42.805,6.029,13.2993,4.60003,2470.334,2021-8-13T08:45:18Z
2021-08-13T06:47:03Z,42.805,6.029,13.2990,4.60003,2470.334,2021-8-13T08:48:21Z
2021-08-13T06:50:06Z,42.805,6.029,13.2990,4.60004,2470.343,2021-8-13T08:51:24Z
2021-08-13T06:53:09Z,42.805,6.029,13.2987,4.60004,2470.334,2021-8-13T08:54:27Z
2021-08-13T06:56:12Z,42.805,6.029,13.2990,4.60004,2470.357,2021-8-13T08:57:31Z
2021-08-13T06:59:15Z,42.805,6.029,13.2991,4.60003,2470.343,2021-8-13T09:00:34Z
2021-08-13T07:02:19Z,42.805,6.029,13.2993,4.60001,2470.343,2021-8-13T09:03:37Z
2021-08-13T07:05:22Z,42.805,6.029,13.2990,4.60006,2470.343,2021-8-13T09:06:40Z
2021-08-13T07:08:25Z,42.805,6.029,13.2990,4.60001,2470.357,2021-8-13T09:09:43Z
2021-08-13T07:11:28Z,42.805,6.029,13.2991,4.60001,2470.357,2021-8-13T09:12:46Z
2021-08-13T07:14:31Z,42.805,6.029,13.2988,4.60002,2470.343,2021-8-13T09:15:49Z
2021-08-13T07:17:34Z,42.805,6.029,13.2990,4.60003,2470.334,2021-8-13T09:18:52Z
2021-08-13T07:20:37Z,42.805,6.029,13.2992,4.60004,2470.366,2021-8-13T09:21:56Z
2021-08-13T07:23:40Z,42.805,6.029,13.2990,4.60001,2470.357,2021-8-13T09:24:59Z
2021-08-13T07:26:43Z,42.805,6.029,13.2986,4.60001,2470.32,2021-8-13T09:28:02Z
2021-08-13T07:29:47Z,42.805,6.029,13.2990,4.60001,2470.357,2021-8-13T09:31:05Z
2021-08-13T07:32:50Z,42.805,6.029,13.2990,4.60005,2470.343,2021-8-13T09:34:08Z
2021-08-13T07:35:53Z,42.805,6.029,13.2989,4.60003,2470.343,2021-8-13T09:37:11Z
2021-08-13T07:38:56Z,42.805,6.029,13.2990,4.60006,2470.343,2021-8-13T09:40:14Z
2021-08-13T07:41:59Z,42.805,6.029,13.2990,4.60002,2470.366,2021-8-13T09:43:17Z
2021-08-13T07:45:02Z,42.805,6.029,13.2992,4.60001,2470.32,2021-8-13T09:46:21Z
2021-08-13T07:48:05Z,42.805,6.029,13.2990,4.60005,2470.38,2021-8-13T09:49:24Z
2021-08-13T07:51:08Z,42.805,6.029,13.2993,4.60002,2470.38,2021-8-13T09:52:27Z
2021-08-13T07:54:12Z,42.805,6.029,13.2989,4.60005,2470.366,2021-8-13T09:55:30Z
2021-08-13T07:57:15Z,42.805,6.029,13.2994,4.60001,2470.343,2021-8-13T09:58:33Z
2021-08-13T08:00:18Z,42.805,6.029,13.2986,4.60002,2470.366,2021-8-13T10:01:36Z
2021-08-13T08:03:21Z,42.805,6.029,13.2986,4.60001,2470.39,2021-8-13T10:04:39Z
2021-08-13T08:06:24Z,42.805,6.029,13.2990,4.60002,2470.39,2021-8-13T10:07:42Z
2021-08-13T08:09:27Z,42.805,6.029,13.2993,4.60005,2470.404,2021-8-13T10:10:46Z
2021-08-13T08:12:30Z,42.805,6.029,13.2993,4.60005,2470.404,2021-8-13T10:13:49Z
2021-08-13T08:15:33Z,42.805,6.029,13.2989,4.60003,2470.413,2021-8-13T10:16:52Z
2021-08-13T08:18:37Z,42.805,6.029,13.2990,4.60002,2470.39,2021-8-13T10:19:55Z
2021-08-13T08:21:40Z,42.805,6.029,13.2992,4.60002,2470.38,2021-8-13T10:22:58Z
2021-08-13T08:24:43Z,42.805,6.029,13.2990,4.60002,2470.39,2021-8-13T10:26:01Z
2021-08-13T08:27:46Z,42.805,6.029,13.2986,4.60005,2470.39,2021-8-13T10:29:04Z
2021-08-13T08:30:49Z,42.805,6.029,13.2990,4.60002,2470.437,2021-8-13T10:32:07Z
2021-08-13T08:33:52Z,42.805,6.029,13.2990,4.60003,2470.39,2021-8-13T10:35:11Z
2021-08-13T08:36:55Z,42.805,6.029,13.2990,4.60003,2470.39,2021-8-13T10:38:14Z
2021-08-13T08:39:59Z,42.805,6.029,13.2990,4.60010,2470.404,2021-8-13T10:41:17Z
2021-08-13T08:43:02Z,42.805,6.029,13.2990,4.60003,2470.376,2021-8-13T10:44:20Z
2021-08-13T08:46:05Z,42.805,6.029,13.2991,4.60003,2470.45,2021-8-13T10:47:23Z
2021-08-13T08:49:08Z,42.805,6.029,13.2992,4.60005,2470.437,2021-8-13T10:50:26Z
2021-08-13T08:52:11Z,42.805,6.029,13.2991,4.60001,2470.427,2021-8-13T10:53:29Z
2021-08-13T08:55:14Z,42.805,6.029,13.2988,4.60003,2470.413,2021-8-13T10:56:32Z
2021-08-13T08:58:17Z,42.805,6.029,13.2991,4.60006,2470.427,2021-8-13T10:59:36Z
2021-08-13T09:01:20Z,42.805,6.029,13.2992,4.60008,2470.427,2021-8-13T11:02:39Z
2021-08-13T09:04:23Z,42.805,6.029,13.2990,4.60005,2470.413,2021-8-13T11:05:42Z
2021-08-13T09:07:27Z,42.805,6.029,13.2989,4.60003,2470.413,2021-8-13T11:08:45Z
2021-08-13T09:10:30Z,42.805,6.029,13.2989,4.60004,2470.437,2021-8-13T11:11:48Z
2021-08-13T09:13:33Z,42.805,6.029,13.2991,4.60003,2470.39,2021-8-13T11:14:51Z
2021-08-13T09:16:36Z,42.805,6.029,13.2990,4.60010,2470.46,2021-8-13T11:17:54Z
2021-08-13T09:19:39Z,42.805,6.029,13.2994,4.60007,2470.413,2021-8-13T11:20:57Z
2021-08-13T09:22:42Z,42.805,6.029,13.2994,4.60008,2470.437,2021-8-13T11:24:01Z
2021-08-13T09:25:45Z,42.805,6.029,13.2988,4.60006,2470.437,2021-8-13T11:27:04Z
2021-08-13T09:28:49Z,42.805,6.029,13.2998,4.60003,2470.413,2021-8-13T11:30:07Z
2021-08-13T09:31:52Z,42.805,6.029,13.2991,4.60001,2470.437,2021-8-13T11:33:10Z
2021-08-13T09:34:55Z,42.805,6.029,13.2994,4.60004,2470.45,2021-8-13T11:36:13Z
2021-08-13T09:37:58Z,42.805,6.029,13.2994,4.60003,2470.46,2021-8-13T11:39:16Z
2021-08-13T09:41:01Z,42.805,6.029,13.2992,4.60006,2470.437,2021-8-13T11:42:19Z
2021-08-13T09:44:04Z,42.805,6.029,13.2990,4.60006,2470.45,2021-8-13T11:45:22Z
2021-08-13T09:47:07Z,42.805,6.029,13.2991,4.60005,2470.45,2021-8-13T11:48:26Z
2021-08-13T09:50:10Z,42.805,6.029,13.2990,4.60007,2470.45,2021-8-13T11:51:29Z
2021-08-13T09:53:14Z,42.805,6.029,13.2992,4.60004,2470.413,2021-8-13T11:54:32Z
2021-08-13T09:56:17Z,42.805,6.029,13.2995,4.60005,2470.39,2021-8-13T11:57:35Z
2021-08-13T09:59:20Z,42.805,6.029,13.2993,4.60005,2470.404,2021-8-13T12:00:38Z
2021-08-13T10:02:23Z,42.805,6.029,13.2992,4.60009,2470.39,2021-8-13T12:03:41Z
2021-08-13T10:05:26Z,42.805,6.029,13.2993,4.60004,2470.437,2021-8-13T12:06:44Z
2021-08-13T10:08:29Z,42.805,6.029,13.2990,4.60001,2470.437,2021-8-13T12:09:47Z
2021-08-13T10:11:32Z,42.805,6.029,13.2991,4.60004,2470.39,2021-8-13T12:12:51Z
2021-08-13T10:14:35Z,42.805,6.029,13.2996,4.60002,2470.45,2021-8-13T12:15:54Z
2021-08-13T10:17:39Z,42.805,6.029,13.2998,4.60005,2470.413,2021-8-13T12:18:57Z
2021-08-13T10:20:42Z,42.805,6.029,13.2992,4.60002,2470.437,2021-8-13T12:22:00Z
2021-08-13T10:23:45Z,42.805,6.029,13.2989,4.60003,2470.46,2021-8-13T12:25:03Z
2021-08-13T10:26:48Z,42.805,6.029,13.2993,4.60002,2470.474,2021-8-13T12:28:06Z
2021-08-13T10:29:51Z,42.805,6.029,13.2990,4.60002,2470.46,2021-8-13T12:31:09Z
2021-08-13T10:32:54Z,42.805,6.029,13.2991,4.60004,2470.437,2021-8-13T12:34:13Z
2021-08-13T10:35:57Z,42.805,6.029,13.2988,4.60006,2470.413,2021-8-13T12:37:16Z
2021-08-13T10:39:00Z,42.805,6.029,13.2993,4.60003,2470.45,2021-8-13T12:40:19Z
2021-08-13T10:42:04Z,42.805,6.029,13.2995,4.60004,2470.413,2021-8-13T12:43:22Z
2021-08-13T10:45:07Z,42.805,6.029,13.2995,4.60003,2470.427,2021-8-13T12:46:25Z
2021-08-13T10:48:10Z,42.805,6.029,13.2996,4.60006,2470.45,2021-8-13T12:49:28Z
2021-08-13T10:51:13Z,42.805,6.029,13.2993,4.60003,2470.474,2021-8-13T12:52:31Z
2021-08-13T10:54:16Z,42.805,6.029,13.2987,4.60006,2470.474,2021-8-13T12:55:34Z
2021-08-13T10:57:19Z,42.805,6.029,13.2990,4.60003,2470.45,2021-8-13T12:58:38Z
2021-08-13T11:00:22Z,42.805,6.029,13.2987,4.60003,2470.413,2021-8-13T13:01:41Z
2021-08-13T11:03:25Z,42.805,6.029,13.2989,4.60006,2470.45,2021-8-13T13:04:44Z
2021-08-13T11:06:29Z,42.805,6.029,13.2991,4.60001,2470.45,2021-8-13T13:07:47Z
2021-08-13T11:09:32Z,42.805,6.029,13.2990,4.60000,2470.38,2021-8-13T13:10:50Z
2021-08-13T11:12:35Z,42.805,6.029,13.2991,4.60001,2470.427,2021-8-13T13:13:53Z
2021-08-13T11:15:38Z,42.805,6.029,13.2993,4.60001,2470.366,2021-8-13T13:16:56Z
2021-08-13T11:18:41Z,42.805,6.029,13.2988,4.60000,2470.427,2021-8-13T13:19:59Z
2021-08-13T11:21:44Z,42.805,6.029,13.2993,4.60001,2470.427,2021-8-13T13:23:03Z
2021-08-13T11:24:47Z,42.805,6.029,13.2991,4.60011,2470.413,2021-8-13T13:26:06Z
2021-08-13T11:27:50Z,42.805,6.029,13.2990,4.60003,2470.413,2021-8-13T13:29:09Z
2021-08-13T11:30:54Z,42.805,6.029,13.2990,4.60001,2470.45,2021-8-13T13:32:12Z
2021-08-13T11:33:57Z,42.805,6.029,13.2990,4.60003,2470.39,2021-8-13T13:35:15Z
2021-08-13T11:37:00Z,42.805,6.029,13.2990,4.60001,2470.427,2021-8-13T13:38:18Z
2021-08-13T11:40:03Z,42.805,6.029,13.2992,4.60000,2470.376,2021-8-13T13:41:21Z
2021-08-13T11:43:06Z,42.805,6.029,13.2990,4.60003,2470.366,2021-8-13T13:44:24Z
2021-08-13T11:46:09Z,42.805,6.029,13.2991,4.60001,2470.413,2021-8-13T13:47:28Z
2021-08-13T11:49:12Z,42.805,6.029,13.2989,4.60002,2470.413,2021-8-13T13:50:31Z
2021-08-13T11:52:16Z,42.805,6.029,13.2990,4.60001,2470.39,2021-8-13T13:53:34Z
2021-08-13T11:55:19Z,42.805,6.029,13.2994,4.60001,2470.45,2021-8-13T13:56:37Z
2021-08-13T11:58:22Z,42.805,6.029,13.2990,4.60004,2470.404,2021-8-13T13:59:40Z
2021-08-13T12:01:25Z,42.805,6.029,13.2990,4.60003,2470.39,2021-8-13T14:02:43Z
2021-08-13T12:04:28Z,42.805,6.029,13.2989,4.60008,2470.404,2021-8-13T14:05:46Z
2021-08-13T12:07:31Z,42.805,6.029,13.2990,4.60009,2470.39,2021-8-13T14:08:49Z
2021-08-13T12:10:34Z,42.805,6.029,13.2990,4.60000,2470.38,2021-8-13T14:11:53Z
2021-08-13T12:13:37Z,42.805,6.029,13.2991,4.60004,2470.39,2021-8-13T14:14:56Z
2021-08-13T12:16:41Z,42.805,6.029,13.2993,4.60003,2470.39,2021-8-13T14:17:59Z
2021-08-13T12:19:44Z,42.805,6.029,13.2993,4.60000,2470.39,2021-8-13T14:21:02Z
2021-08-13T12:22:47Z,42.805,6.029,13.2989,4.60001,2470.343,2021-8-13T14:24:05Z
2021-08-13T12:25:50Z,42.805,6.029,13.2990,4.60003,2470.366,2021-8-13T14:27:08Z
2021-08-13T12:28:53Z,42.805,6.029,13.2991,4.59999,2470.404,2021-8-13T14:30:11Z
2021-08-13T12:31:56Z,42.805,6.029,13.2985,4.59999,2470.39,2021-8-13T14:33:15Z
2021-08-13T12:34:59Z,42.805,6.029,13.2990,4.60000,2470.343,2021-8-13T14:36:18Z
2021-08-13T12:38:02Z,42.805,6.029,13.2989,4.60001,2470.38,2021-8-13T14:39:21Z
2021-08-13T12:41:06Z,42.805,6.029,13.2991,4.60005,2470.343,2021-8-13T14:42:24Z
2021-08-13T12:44:09Z,42.805,6.029,13.2987,4.60001,2470.366,2021-8-13T14:45:27Z
2021-08-13T12:47:12Z,42.805,6.029,13.2993,4.60003,2470.404,2021-8-13T14:48:30Z
2021-08-13T12:50:15Z,42.805,6.029,13.2991,4.60003,2470.366,2021-8-13T14:51:33Z
2021-08-13T12:53:18Z,42.805,6.029,13.2992,4.60000,2470.343,2021-8-13T14:54:36Z
2021-08-13T12:56:21Z,42.805,6.029,13.2993,4.60003,2470.38,2021-8-13T14:57:40Z
2021-08-13T12:59:24Z,42.805,6.029,13.2990,4.60001,2470.38,2021-8-13T15:00:43Z
2021-08-13T13:02:27Z,42.805,6.029,13.2990,4.60001,2470.32,2021-8-13T15:03:46Z
2021-08-13T13:05:31Z,42.805,6.029,13.2990,4.60001,2470.334,2021-8-13T15:06:49Z
2021-08-13T13:08:34Z,42.805,6.029,13.2992,4.60003,2470.32,2021-8-13T15:09:52Z
2021-08-13T13:11:37Z,42.805,6.029,13.2987,4.60014,2470.32,2021-8-13T15:12:55Z
2021-08-13T13:14:40Z,42.805,6.029,13.2988,4.60001,2470.38,2021-8-13T15:15:58Z
2021-08-13T13:17:43Z,42.805,6.029,13.2990,4.60002,2470.297,2021-8-13T15:19:01Z
2021-08-13T13:20:46Z,42.805,6.029,13.2986,4.60000,2470.31,2021-8-13T15:22:05Z
2021-08-13T13:23:49Z,42.805,6.029,13.2990,4.60003,2470.343,2021-8-13T15:25:08Z
2021-08-13T13:26:52Z,42.805,6.029,13.2989,4.60001,2470.32,2021-8-13T15:28:11Z
2021-08-13T13:29:56Z,42.805,6.029,13.2990,4.60001,2470.31,2021-8-13T15:31:14Z
2021-08-13T13:32:59Z,42.805,6.029,13.2992,4.60000,2470.32,2021-8-13T15:34:17Z
2021-08-13T13:36:02Z,42.805,6.029,13.2987,4.60002,2470.357,2021-8-13T15:37:20Z
2021-08-13T13:39:05Z,42.805,6.029,13.2990,4.60002,2470.334,2021-8-13T15:40:23Z
2021-08-13T13:42:08Z,42.805,6.029,13.2991,4.60003,2470.334,2021-8-13T15:43:26Z
2021-08-13T13:45:11Z,42.805,6.029,13.2988,4.60001,2470.32,2021-8-13T15:46:30Z
2021-08-13T13:48:14Z,42.805,6.029,13.2990,4.60003,2470.32,2021-8-13T15:49:33Z
2021-08-13T13:51:17Z,42.805,6.029,13.2991,4.60006,2470.334,2021-8-13T15:52:36Z
2021-08-13T13:54:21Z,42.805,6.029,13.2991,4.60001,2470.32,2021-8-13T15:55:39Z
2021-08-13T13:57:24Z,42.805,6.029,13.2990,4.60001,2470.32,2021-8-13T15:58:42Z
2021-08-13T14:00:27Z,42.805,6.029,13.2990,4.60003,2470.287,2021-8-13T16:01:45Z
2021-08-13T14:03:30Z,42.805,6.029,13.2993,4.60001,2470.297,2021-8-13T16:04:48Z
2021-08-13T14:06:33Z,42.805,6.029,13.2990,4.60000,2470.32,2021-8-13T16:07:51Z
2021-08-13T14:09:36Z,42.805,6.029,13.2987,4.60001,2470.32,2021-8-13T16:10:55Z
2021-08-13T14:12:39Z,42.805,6.029,13.2987,4.60001,2470.32,2021-8-13T16:13:58Z
2021-08-13T14:15:42Z,42.805,6.029,13.2989,4.60002,2470.297,2021-8-13T16:17:01Z
2021-08-13T14:18:46Z,42.805,6.029,13.2990,4.60000,2470.287,2021-8-13T16:20:04Z
2021-08-13T14:21:49Z,42.805,6.029,13.2988,4.60000,2470.297,2021-8-13T16:23:07Z
2021-08-13T14:24:52Z,42.805,6.029,13.2991,4.60000,2470.31,2021-8-13T16:26:10Z
2021-08-13T14:27:55Z,42.805,6.029,13.2989,4.60003,2470.273,2021-8-13T16:29:13Z
2021-08-13T14:30:58Z,42.805,6.029,13.2991,4.60003,2470.32,2021-8-13T16:32:16Z
2021-08-13T14:34:01Z,42.805,6.029,13.2990,4.60002,2470.32,2021-8-13T16:35:20Z
2021-08-13T14:37:04Z,42.805,6.029,13.2991,4.60006,2470.31,2021-8-13T16:38:23Z
2021-08-13T14:40:07Z,42.805,6.029,13.2989,4.60006,2470.287,2021-8-13T16:41:26Z
2021-08-13T14:43:11Z,42.805,6.029,13.2991,4.60003,2470.32,2021-8-13T16:44:29Z
2021-08-13T14:46:14Z,42.805,6.029,13.2990,4.60002,2470.31,2021-8-13T16:47:32Z
2021-08-13T14:49:17Z,42.805,6.029,13.2993,4.60001,2470.287,2021-8-13T16:50:35Z
2021-08-13T14:52:20Z,42.805,6.029,13.2992,4.60003,2470.297,2021-8-13T16:53:38Z
2021-08-13T14:55:23Z,42.805,6.029,13.2993,4.60004,2470.273,2021-8-13T16:56:42Z
2021-08-13T14:58:26Z,42.805,6.029,13.2990,4.60003,2470.264,2021-8-13T16:59:45Z
2021-08-13T15:01:29Z,42.805,6.029,13.2991,4.60003,2470.31,2021-8-13T17:02:48Z
2021-08-13T15:04:33Z,42.805,6.029,13.2991,4.60005,2470.287,2021-8-13T17:05:51Z
2021-08-13T15:07:36Z,42.805,6.029,13.2998,4.60005,2470.264,2021-8-13T17:08:54Z
2021-08-13T15:10:39Z,42.805,6.029,13.2997,4.60006,2470.273,2021-8-13T17:11:57Z
2021-08-13T15:13:42Z,42.805,6.029,13.2996,4.60004,2470.297,2021-8-13T17:15:00Z